Leakey, Texas, United States (78873)
Lat: 29.73N, Lon: 99.76W
Wx Zone: TXZ185
Local Info
Past Weather Observations for Thursday, July 21, 2016

NOTE: This archive is for the closest National Weather Service station to Leakey. Information may differ from the station used for current weather conditions.

Click here for Long-term Archive

Time Weather Temperature Dewpoint Humidity Pressure Winds Precip Visibility
23:50
Partly Cloudy
81°F / 27°C 63°F / 17°C 54% 30.18 in
(1022 mb)
SE 9.2 mph
(SE 15 kph)
- 10SM
23:30
Partly Cloudy
79°F / 26°C 61°F / 16°C 54% 30.18 in
(1022 mb)
SE 5.8 mph
(SE 9 kph)
- 10SM
23:10
Mostly Cloudy
79°F / 26°C 61°F / 16°C 54% 30.18 in
(1022 mb)
Calm - 10SM
22:50
Mostly Cloudy
79°F / 26°C 61°F / 16°C 54% 30.18 in
(1022 mb)
Calm - 10SM
22:30
Overcast
79°F / 26°C 61°F / 16°C 54% 30.18 in
(1022 mb)
Calm - 10SM
22:10
Mostly Cloudy
79°F / 26°C 59°F / 15°C 51% 30.18 in
(1022 mb)
Calm - 10SM
21:50
Mostly Cloudy
81°F / 27°C 59°F / 15°C 48% 30.18 in
(1022 mb)
Calm - 10SM
21:30
Mostly Cloudy
82°F / 28°C 61°F / 16°C 48% 30.18 in
(1022 mb)
Calm - 10SM
21:10
Overcast
84°F / 29°C 61°F / 16°C 45% 30.15 in
(1021 mb)
SE 5.8 mph
(SE 9 kph)
- 10SM
20:50
Overcast
84°F / 29°C 61°F / 16°C 45% 30.15 in
(1021 mb)
SE 8.1 mph
(SE 13 kph)
- 10SM
20:30
Overcast
86°F / 30°C 59°F / 15°C 40% 30.15 in
(1021 mb)
SSE 6.9 mph
(SSE 11 kph)
- 10SM
20:10
Overcast
86°F / 30°C 61°F / 16°C 43% 30.15 in
(1021 mb)
SSE 9.2 mph
(SSE 15 kph)
- 10SM
19:50
Mostly Cloudy
88°F / 31°C 61°F / 16°C 40% 30.15 in
(1021 mb)
SSE 8.1 mph
(SSE 13 kph)
- 10SM
19:30
Mostly Cloudy
88°F / 31°C 59°F / 15°C 38% 30.12 in
(1020 mb)
SE 11.5 mph
(SE 19 kph)
- 10SM
19:10
Mostly Cloudy
90°F / 32°C 59°F / 15°C 36% 30.12 in
(1020 mb)
SSE 16.1 mph
(SSE 26 kph)
- 10SM
18:50
Mostly Cloudy
90°F / 32°C 59°F / 15°C 36% 30.12 in
(1020 mb)
SE 11.5 mph
(SE 19 kph)
- 10SM
18:30
Mostly Cloudy
91°F / 33°C 59°F / 15°C 34% 30.12 in
(1020 mb)
SSE 9.2 mph
(SSE 15 kph)
- 10SM
18:10
Mostly Cloudy
91°F / 33°C 57°F / 14°C 32% 30.12 in
(1020 mb)
SSE 11.5 mph
(SSE 19 kph)
- 10SM
17:50
Partly Cloudy
93°F / 34°C 57°F / 14°C 30% 30.12 in
(1020 mb)
SSE 12.7 mph
(SSE 20 kph)
- 10SM
17:30
Mostly Cloudy
93°F / 34°C 57°F / 14°C 30% 30.12 in
(1020 mb)
S 12.7 mph
(S 20 kph)
- 10SM
17:10
Partly Cloudy
93°F / 34°C 57°F / 14°C 30% 30.12 in
(1020 mb)
S 13.8 mph
(S 22 kph)
- 10SM
16:50
Partly Cloudy
93°F / 34°C 57°F / 14°C 30% 30.15 in
(1021 mb)
SSE 11.5 mph
(SSE 19 kph)
- 10SM
16:30
Mostly Cloudy
95°F / 35°C 57°F / 14°C 28% 30.15 in
(1021 mb)
SSE 12.7 mph
(SSE 20 kph)
- 10SM
16:10
Partly Cloudy
95°F / 35°C 55°F / 13°C 26% 30.15 in
(1021 mb)
SSE 10.4 mph
(SSE 17 kph)
- 10SM
15:50
Mostly Cloudy
97°F / 36°C 57°F / 14°C 27% 30.15 in
(1021 mb)
S 11.5 mph
(S 19 kph)
- 10SM
15:30
Partly Cloudy
95°F / 35°C 55°F / 13°C 26% 30.15 in
(1021 mb)
SSE 11.5 mph
(SSE 19 kph)
- 10SM
15:10
Mostly Cloudy
95°F / 35°C 57°F / 14°C 28% 30.18 in
(1022 mb)
SE 12.7 mph
(SE 20 kph)
- 10SM
14:50
Mostly Cloudy
93°F / 34°C 57°F / 14°C 30% 30.18 in
(1022 mb)
SSE 10.4 mph
(SSE 17 kph)
- 10SM
14:30
Mostly Cloudy
95°F / 35°C 57°F / 14°C 28% 30.18 in
(1022 mb)
SSE 10.4 mph
(SSE 17 kph)
- 9SM
14:10
Mostly Cloudy
93°F / 34°C 57°F / 14°C 30% 30.18 in
(1022 mb)
S 10.4 mph
(S 17 kph)
- 10SM
13:50
Mostly Cloudy
93°F / 34°C 59°F / 15°C 32% 30.18 in
(1022 mb)
S 10.4 mph
(S 17 kph)
- 10SM
13:30
Partly Cloudy
93°F / 34°C 55°F / 13°C 28% 30.21 in
(1023 mb)
SSE 5.8 mph
(SSE 9 kph)
- 10SM
13:10
Clear
93°F / 34°C 61°F / 16°C 34% 30.21 in
(1023 mb)
SSE 12.7 mph
(SSE 20 kph)
- 10SM
12:50
Clear
91°F / 33°C 61°F / 16°C 36% 30.21 in
(1023 mb)
S 11.5 mph
(S 19 kph)
- 10SM
12:30
Clear
91°F / 33°C 61°F / 16°C 36% 30.21 in
(1023 mb)
SSE 4.6 mph
(SSE 7 kph)
- 10SM
12:10
Clear
91°F / 33°C 61°F / 16°C 36% 30.24 in
(1024 mb)
SE 6.9 mph
(SE 11 kph)
- 10SM
11:50
Partly Cloudy
91°F / 33°C 59°F / 15°C 34% 30.24 in
(1024 mb)
SE 10.4 mph
(SE 17 kph)
- 10SM
11:30
Partly Cloudy
90°F / 32°C 55°F / 13°C 31% 30.24 in
(1024 mb)
SSE 11.5 mph
(SSE 19 kph)
- 10SM
11:10
Overcast
90°F / 32°C 57°F / 14°C 33% 30.24 in
(1024 mb)
SSE 9.2 mph
(SSE 15 kph)
- 10SM
10:50
Mostly Cloudy
88°F / 31°C 63°F / 17°C 43% 30.24 in
(1024 mb)
S 8.1 mph
(S 13 kph)
- 10SM
10:30
Mostly Cloudy
88°F / 31°C 63°F / 17°C 43% 30.24 in
(1024 mb)
S 9.2 mph
(S 15 kph)
- 10SM
10:10
Mostly Cloudy
88°F / 31°C 64°F / 18°C 46% 30.24 in
(1024 mb)
S 9.2 mph
(S 15 kph)
- 10SM
09:50
Partly Cloudy
86°F / 30°C 64°F / 18°C 49% 30.24 in
(1024 mb)
S 9.2 mph
(S 15 kph)
- 10SM
09:30
Partly Cloudy
84°F / 29°C 66°F / 19°C 55% 30.24 in
(1024 mb)
S 8.1 mph
(S 13 kph)
- 10SM
09:10
Partly Cloudy
84°F / 29°C 66°F / 19°C 55% 30.24 in
(1024 mb)
SSE 10.4 mph
(SSE 17 kph)
- 10SM
08:50
Partly Cloudy
82°F / 28°C 68°F / 20°C 62% 30.24 in
(1024 mb)
S 9.2 mph
(S 15 kph)
- 10SM
08:30
Clear
81°F / 27°C 68°F / 20°C 66% 30.24 in
(1024 mb)
S 9.2 mph
(S 15 kph)
- 10SM
08:10
Clear
79°F / 26°C 68°F / 20°C 70% 30.24 in
(1024 mb)
S 8.1 mph
(S 13 kph)
- 10SM
07:50
Clear
79°F / 26°C 68°F / 20°C 70% 30.24 in
(1024 mb)
SSE 10.4 mph
(SSE 17 kph)
- 10SM
07:30
Clear
75°F / 24°C 66°F / 19°C 74% 30.24 in
(1024 mb)
SSE 8.1 mph
(SSE 13 kph)
- 10SM
07:10
Clear
75°F / 24°C 66°F / 19°C 74% 30.24 in
(1024 mb)
SSE 8.1 mph
(SSE 13 kph)
- 10SM
06:50
Clear
73°F / 23°C 66°F / 19°C 78% 30.24 in
(1024 mb)
SSE 6.9 mph
(SSE 11 kph)
- 10SM
06:30
Clear
72°F / 22°C 66°F / 19°C 83% 30.21 in
(1023 mb)
SSE 5.8 mph
(SSE 9 kph)
- 10SM
06:10
Clear
72°F / 22°C 64°F / 18°C 78% 30.21 in
(1023 mb)
Calm - 10SM
05:50
Clear
72°F / 22°C 64°F / 18°C 78% 30.21 in
(1023 mb)
Calm - 10SM
05:30
Clear
72°F / 22°C 64°F / 18°C 78% 30.21 in
(1023 mb)
Calm - 10SM
05:10
Clear
72°F / 22°C 64°F / 18°C 78% 30.21 in
(1023 mb)
Calm - 10SM
04:50
Clear
72°F / 22°C 64°F / 18°C 78% 30.21 in
(1023 mb)
SSE 5.8 mph
(SSE 9 kph)
- 10SM
04:30
Clear
73°F / 23°C 64°F / 18°C 74% 30.21 in
(1023 mb)
SSE 9.2 mph
(SSE 15 kph)
- 10SM
04:10
Clear
73°F / 23°C 64°F / 18°C 74% 30.21 in
(1023 mb)
SSE 9.2 mph
(SSE 15 kph)
- 10SM
03:50
Clear
73°F / 23°C 64°F / 18°C 74% 30.21 in
(1023 mb)
SSE 8.1 mph
(SSE 13 kph)
- 10SM
03:30
Partly Cloudy
73°F / 23°C 64°F / 18°C 74% 30.21 in
(1023 mb)
SSE 9.2 mph
(SSE 15 kph)
- 10SM
03:10
Partly Cloudy
75°F / 24°C 64°F / 18°C 69% 30.21 in
(1023 mb)
SSE 9.2 mph
(SSE 15 kph)
- 10SM
02:50
Partly Cloudy
75°F / 24°C 64°F / 18°C 69% 30.21 in
(1023 mb)
SSE 12.7 mph
(SSE 20 kph)
- 10SM
02:30
Partly Cloudy
77°F / 25°C 63°F / 17°C 61% 30.21 in
(1023 mb)
SSE 10.4 mph
(SSE 17 kph)
- 10SM
02:10
Partly Cloudy
77°F / 25°C 64°F / 18°C 65% 30.21 in
(1023 mb)
SSE 11.5 mph
(SSE 19 kph)
- 10SM
01:50
Partly Cloudy
79°F / 26°C 64°F / 18°C 61% 30.21 in
(1023 mb)
SSE 11.5 mph
(SSE 19 kph)
- 10SM
01:30
Partly Cloudy
79°F / 26°C 64°F / 18°C 61% 30.21 in
(1023 mb)
SSE 11.5 mph
(SSE 19 kph)
- 10SM
01:10
Partly Cloudy
79°F / 26°C 64°F / 18°C 61% 30.21 in
(1023 mb)
SSE 12.7 mph
(SSE 20 kph)
- 10SM
00:50
Partly Cloudy
79°F / 26°C 64°F / 18°C 61% 30.21 in
(1023 mb)
SE 12.7 mph
(SE 20 kph)
- 10SM
00:30
Mostly Cloudy
81°F / 27°C 64°F / 18°C 58% 30.21 in
(1023 mb)
SE 13.8 mph
(SE 22 kph)
- 10SM
00:10
Mostly Cloudy
81°F / 27°C 64°F / 18°C 58% 30.21 in
(1023 mb)
SSE 16.1 mph
(SSE 26 kph)
- 10SM
Time Weather Temperature Dewpoint Humidity Pressure Winds Precip Visibility


Weather for websites

WeatherForYou.com, LLC is not responsible for any damages or problems caused by this service. Current weather conditions are obtained from the closest station including government and personal stations which may have varying degrees of accuracy. Weather forecasts are derived from the NOAA NDFD. Like all things, this site belongs to Jesus Christ... He just trusts us to maintain it. If you have any questions or comments email webmaster@weatherforyou.com

Copyright © 2016, WeatherForYou.com LLC. All rights reserved.